カタログに戻る

PELICAN-3 300A

運用中通信SSO
NORAD 65315·PAYLOAD·🇺🇸 United States

打ち上げ Aug 26, 2025 から Vandenberg Space Force Base

Loading…

次のパス (今後24時間)

TLE

最新Source: CelesTrak SupGP

元期: Sep 15, 2026, 02:44 UTC

1 65315C 25188A   26258.11440972  .00013071  00000+0  31758-3 0  2581
2 65315  97.1892 332.9141 0000716  41.9454 342.4996 15.41034465    13

AllMySatでPELICAN-3 300Aをリアルタイム追跡

Download on the App Store